Location: Katherine
(14.4670°S, 132.2670°E)
Time: 03:52:09
(UTC+09:30)

ISS - Visible Passes

Search period start: 25 November 2017 00:00
Search period end: 05 December 2017 00:00
Orbit: 401 x 407 km, 51.6° (Epoch: 25 November)

Date Brightness Start Highest point End Pass type
(mag) Time Alt. Az. Time Alt. Az. Time Alt. Az.
27 Nov -2.2 05:02:35 12° N 05:05:13 30° NE 05:08:09 10° ESE visible
28 Nov -1.0 04:12:52 12° NE 04:12:58 12° ENE 04:14:17 10° E visible
29 Nov -3.8 04:55:44 36° WNW 04:56:48 61° SW 05:00:03 10° SSE visible
30 Nov -1.7 04:05:49 27° ESE 04:05:49 27° ESE 04:07:36 10° SE visible
01 Dec -1.8 04:48:28 17° SW 04:48:28 17° SW 04:50:43 10° S visible
02 Dec -1.0 03:58:21 16° SSE 03:58:21 16° SSE 03:59:08 10° SSE visible
